Weather History for KBMQ - January, 2015

Change the Weather History Date:

Thursday, January 29, 2015

  Actual Average Record
Temperature  
Mean Temperature 60 °F -  
Max Temperature 72 °F 58 °F 80 °F (2008)
Min Temperature 48 °F 38 °F 24 °F (2014)
Degree Days  
Heating Degree Days 5    
Growing Degree Days 10 (Base 50)    
Moisture  
Dew Point 41 °F    
Average Humidity 52    
Maximum Humidity 86    
Minimum Humidity 31    
Precipitation  
Precipitation 0.00 in - - ()
Sea Level Pressure  
Sea Level Pressure 30.24 in    
Wind  
Wind Speed 6 mph (North)    
Max Wind Speed 16 mph    
Max Gust Speed 26 mph    
Visibility 10 miles    
Events      
Averages and records for this station are not official NWS values.
T = Trace of Precipitation, MM = Missing Value Source: NWS Daily Summary

Daily Weather History Graph

Daily Weather History Graph

Search for Another Location

Airport or City:

Trip Planner

Search our weather history database for the weather conditions in past years. The results will help you decide how hot, cold, wet, or windy it might be!

Date:

Astronomy

Jan. 29, 2015 Rise Set
Actual Time 7:26 AM CST 6:06 PM CST
Civil Twilight 7:00 AM CST 6:31 PM CST
Nautical Twilight 6:31 AM CST 7:00 PM CST
Astronomical Twilight 6:03 AM CST 7:29 PM CST
Moon 1:56 PM CST (1/29) 2:59 AM CST (1/29)
Length of Visible Light 11h 30m
Length of Day
10h 39m
Waxing Gibbous, 76% of the Moon is Illuminated
Jan 29
Waxing Gibbous
Feb 3
Full
Feb 11
Last Quarter
Feb 18
New
Feb 25
First Quarter

Hourly Weather History & Observations

Time (CST) Temp. Dew Point Humidity Pressure Visibility Wind Dir Wind Speed Gust Speed Precip Events Conditions
12:53 AM 55.9 °F 43.0 °F 62% 30.11 in 10.0 mi SSW 3.5 mph - N/A   Clear
1:53 AM 54.0 °F 44.1 °F 69% 30.11 in 10.0 mi SW 4.6 mph - N/A   Clear
2:53 AM 53.1 °F 45.0 °F 74% 30.11 in 10.0 mi Calm Calm - N/A   Unknown
3:53 AM 51.1 °F 45.0 °F 80% 30.12 in 10.0 mi WSW 3.5 mph - N/A   Clear
4:53 AM 53.1 °F 46.9 °F 80% 30.12 in 10.0 mi WSW 3.5 mph - N/A   Clear
5:53 AM 48.9 °F 45.0 °F 86% 30.13 in 10.0 mi WSW 3.5 mph - N/A   Clear
6:53 AM 51.1 °F 44.1 °F 77% 30.17 in 10.0 mi Calm Calm - N/A   Clear
7:53 AM 50.0 °F 43.0 °F 77% 30.20 in 10.0 mi Calm Calm - N/A   Clear
8:53 AM 60.1 °F 46.0 °F 60% 30.25 in 10.0 mi North 5.8 mph - N/A   Partly Cloudy
9:53 AM 64.0 °F 45.0 °F 50% 30.25 in 10.0 mi SSW 5.8 mph - N/A   Mostly Cloudy
10:53 AM 70.0 °F 45.0 °F 41% 30.25 in 10.0 mi SW 3.5 mph - N/A   Clear
11:53 AM 72.0 °F 44.1 °F 37% 30.24 in 10.0 mi North 9.2 mph - N/A   Clear
12:53 PM 72.0 °F 42.1 °F 34% 30.23 in 10.0 mi Variable 5.8 mph 17.3 mph N/A   Clear
1:53 PM 72.0 °F 41.0 °F 33% 30.22 in 10.0 mi NNE 10.4 mph - N/A   Mostly Cloudy
2:53 PM 71.1 °F 41.0 °F 34% 30.23 in 10.0 mi NNE 15.0 mph 19.6 mph N/A   Partly Cloudy
3:53 PM 70.0 °F 39.9 °F 33% 30.24 in 10.0 mi NNE 13.8 mph 18.4 mph N/A   Clear
4:53 PM 68.0 °F 36.0 °F 31% 30.26 in 10.0 mi NE 13.8 mph 24.2 mph N/A   Clear
5:53 PM 66.0 °F 37.9 °F 36% 30.29 in 10.0 mi North 10.4 mph 24.2 mph N/A   Mostly Cloudy
6:53 PM 63.0 °F 39.0 °F 41% 30.32 in 10.0 mi NNE 8.1 mph - N/A   Scattered Clouds
7:53 PM 61.0 °F 37.9 °F 42% 30.35 in 10.0 mi NNE 9.2 mph - N/A   Mostly Cloudy
8:53 PM 59.0 °F 36.0 °F 42% 30.38 in 10.0 mi NNE 10.4 mph 20.7 mph N/A   Overcast
9:53 PM 57.0 °F 35.1 °F 44% 30.39 in 10.0 mi NNE 16.1 mph 26.5 mph N/A   Overcast
10:53 PM 54.0 °F 34.0 °F 47% 30.40 in 10.0 mi North 12.7 mph 23.0 mph N/A   Overcast
11:53 PM 52.0 °F 32.0 °F 47% 30.41 in 10.0 mi NNE 16.1 mph 23.0 mph 0.00 in   Overcast